FW0579 Weather Reports


Display with metric or nautical units.
time (UTC)temp
F
wind
direction
speed
MPH
gust
MPH
rain 1hr
in
rain 24hr
in
rain mn
in
humidity
%
barometer
mb
20260905123058 52 360 0.0 0.0 0.00 0.00 0.00 86 1013.5
20260905121552 52 360 0.0 0.0 0.00 0.00 0.00 85 1013.5
20260905120052 52 360 0.0 0.0 0.00 0.00 0.00 85 1013.5
20260905113049 53 360 0.0 0.0 0.00 0.00 0.00 85 1013.6
20260905111552 53 360 0.0 0.0 0.00 0.00 0.00 84 1013.6
20260905110046 53 360 0.0 0.0 0.00 0.00 0.00 84 1013.7
20260905103045 54 360 0.0 0.0 0.00 0.00 0.00 84 1013.9
20260905101544 54 360 0.0 3.0 0.00 0.00 0.00 83 1013.9
20260905100059 54 360 0.0 2.0 0.00 0.00 0.00 82 1014.0
20260905093034 56 360 0.0 0.0 0.00 0.00 0.00 81 1013.9
20260905091535 56 360 0.0 0.0 0.00 0.00 0.00 81 1013.8
20260905090032 56 360 0.0 2.0 0.00 0.00 0.00 80 1014.0
20260905083029 57 360 0.0 0.0 0.00 0.00 0.00 80 1014.1
20260905081527 57 360 0.0 0.0 0.00 0.00 0.00 80 1014.1
20260905080025 57 360 0.0 0.0 0.00 0.00 0.00 79 1014.1
20260905073033 58 360 0.0 3.0 0.00 0.00 0.00 78 1014.0
20260905071524 59 360 0.0 0.0 0.00 0.00 0.00 77 1013.8
20260905070018 59 360 1.0 3.0 0.00 0.00 0.00 77 1013.7
20260905063014 60 360 2.0 4.0 0.00 0.00 0.00 75 1013.6
20260905061512 61 360 3.0 8.0 0.00 0.00 0.00 74 1013.6
20260905060014 61 246 4.0 9.0 0.00 0.00 0.00 74 1013.6
20260905053004 63 233 4.0 9.0 0.00 0.00 0.00 69 1013.5
20260905051502 63 234 4.0 11.0 0.00 0.00 0.00 68 1013.6
20260905050107 64 246 5.0 12.0 0.00 0.00 0.00 68 1013.7
20260905043053 65 360 4.0 7.0 0.00 0.00 0.00 63 1013.6
20260905041553 67 252 4.0 9.0 0.00 0.00 0.00 61 1013.4
20260905040057 67 241 4.0 9.0 0.00 0.00 0.00 60 1013.2
20260905033104 69 252 5.0 8.0 0.00 0.00 0.00 57 1012.8
20260905031608 69 261 5.0 10.0 0.00 0.00 0.00 55 1012.7
20260905030052 70 225 5.0 9.0 0.00 0.00 0.00 52 1012.5
20260905023123 73 226 2.0 4.0 0.00 0.00 0.00 44 1012.2
20260905021550 75 223 3.0 5.0 0.00 0.00 0.00 41 1012.3
20260905020049 75 221 2.0 4.0 0.00 0.00 0.00 40 1012.3
20260905014651 76 252 2.0 10.0 0.00 0.00 0.00 39 1012.4
20260905013053 77 250 3.0 8.0 0.00 0.00 0.00 40 1012.3
20260905011556 77 243 5.0 10.0 0.00 0.00 0.00 39 1012.1
20260905010049 78 232 5.0 8.0 0.00 0.00 0.00 40 1012.1
20260905004648 79 256 5.0 10.0 0.00 0.00 0.00 38 1012.1
20260905003058 79 238 2.0 5.0 0.00 0.00 0.00 39 1012.3
20260905001606 79 253 4.0 14.0 0.00 0.00 0.00 38 1012.4
20260905000113 79 215 6.0 9.0 0.00 0.00 0.00 36 1012.3
20260904234656 79 273 5.0 10.0 0.00 0.00 0.00 38 1012.5
20260904233048 79 284 4.0 14.0 0.00 0.00 0.00 36 1012.6
20260904231545 80 257 4.0 9.0 0.00 0.00 0.00 38 1012.6
20260904230049 79 234 2.0 10.0 0.00 0.00 0.00 38 1012.6
20260904224643 80 238 1.0 7.0 0.00 0.00 0.00 37 1012.8
20260904223040 79 350 1.0 8.0 0.00 0.00 0.00 37 1012.9
20260904221537 78 280 5.0 12.0 0.00 0.00 0.00 35 1013.0
20260904213034 77 232 3.0 9.0 0.00 0.00 0.00 40 1013.1
20260904211530 76 281 6.0 12.0 0.00 0.00 0.00 39 1013.2
20260904210035 77 247 8.0 13.0 0.00 0.00 0.00 40 1013.3
20260904204627 76 233 2.0 9.0 0.00 0.00 0.00 45 1013.2
20260904203034 76 277 2.0 10.0 0.00 0.00 0.00 46 1013.4
20260904201523 75 64 3.0 12.0 0.00 0.00 0.00 47 1013.4
20260904200031 74 230 4.0 12.0 0.00 0.00 0.00 49 1013.3
20260904194621 73 271 1.0 12.0 0.00 0.00 0.00 50 1013.4
20260904193025 72 269 4.0 13.0 0.00 0.00 0.00 51 1013.6
20260904191535 72 237 4.0 10.0 0.00 0.00 0.00 52 1013.8
20260904190020 72 261 5.0 9.0 0.00 0.00 0.00 54 1013.9
20260904183013 70 248 5.0 11.0 0.00 0.00 0.00 57 1014.0
20260904181512 69 236 0.0 9.0 0.00 0.00 0.00 62 1013.8
20260904180010 70 271 4.0 9.0 0.00 0.00 0.00 61 1014.0
20260904173005 68 279 6.0 12.0 0.00 0.00 0.00 65 1013.9
20260904171501 67 360 5.0 13.0 0.00 0.00 0.00 66 1013.8
20260904170100 67 280 5.0 11.0 0.00 0.00 0.00 65 1013.7
20260904164656 67 219 5.0 10.0 0.00 0.00 0.00 67 1013.6
20260904163104 66 259 3.0 9.0 0.00 0.00 0.00 67 1013.5
20260904161549 65 360 5.0 10.0 0.00 0.00 0.00 68 1013.4
20260904160045 65 360 5.0 10.0 0.00 0.00 0.00 69 1013.4
20260904154641 64 360 4.0 10.0 0.00 0.00 0.00 71 1013.4
20260904153046 63 360 6.0 9.0 0.00 0.00 0.00 73 1013.4
20260904151537 62 360 4.0 9.0 0.00 0.00 0.00 76 1013.3
20260904150035 61 216 3.0 5.0 0.00 0.00 0.00 80 1013.3
20260904144529 61 205 1.0 3.0 0.00 0.00 0.00 79 1013.0
20260904143027 61 205 0.0 2.0 0.00 0.00 0.00 79 1012.9
20260904141523 62 205 0.0 0.0 0.00 0.00 0.00 79 1012.7
20260904140021 62 205 0.0 2.0 0.00 0.00 0.00 79 1012.4
20260904134618 62 205 2.0 4.0 0.00 0.00 0.00 79 1012.3
20260904133020 62 203 0.0 0.0 0.00 0.00 0.00 79 1012.3
20260904131518 62 203 0.0 2.0 0.00 0.00 0.00 79 1012.2